User: anonymous   Login
Location: Albany
(35.0000°S, 118.0000°E)
Time: 18:47:50
(UTC-04:00)
Language:

TRMM - Orbit

View from above orbital plane
View from above orbital plane
View from above satellite
View from above satellite

Ground track
Ground track

The orbit data is extracted from the following two-line orbital elements,

1 25063U 97074A   14298.62870039  .00045785  00000-0  52375-3 0  7859
2 25063 034.9552 355.3784 0002629 155.6406 336.5094 15.61039325965046
Epoch (UTC): 25 October 2014 15:05:19
Eccentricity: 0.0002629
inclination: 34.9552°
perigee height: 383 km
apogee height: 386 km
right ascension of ascending node: 355.3784°
argument of perigee: 155.6406°
revolutions per day: 15.61039325
mean anomaly at epoch: 336.5094°
orbit number at epoch: 96504

The dashed part of the orbit path shows where the satellite is in the earth's shadow,  

DLR